Date String (YYYY-MM-DD hh:mm:ss) UTC,Instrument flags,Ambient pressure (hPa),Sample flow (lpm),Bypass flow (lpm),Sample temperature (°C),Ambient temperature (°C),ASC tube jacket temperature (°C),LED temperature (°C),Box temperature (°C),Sample RH (%),Span deviation,Mass concentration (μg/m³),Mass concentration (μg/m³),Mass concentration (μg/m³)
DateTimeUTC,F1_M11,P_M11,Q1_M11,Q2_M11,T1_M11,T2_M11,T3_M11,T4_M11,T5_M11,U1_M11,ZSPAN_M11,X0_M11,X2_M11,X1_M11
2022-11-13 15:00:00,,0820.2,5.00,0.00,22.4,21.2,00.0,31.3,24.3,09.0,0002.2,0017.66,0009.72,0008.72
2022-11-13 15:01:00,,0820.2,5.00,0.00,22.4,21.2,00.0,31.3,24.3,08.9,0002.0,0018.86,0009.88,0008.86
2022-11-13 15:02:00,,0820.2,5.00,0.00,22.4,21.2,00.0,31.3,24.3,09.0,0002.0,0020.02,0010.07,0009.01
2022-11-13 15:03:00,,0820.2,5.01,0.00,22.4,21.1,00.0,31.3,24.3,09.0,0002.4,0020.46,0010.23,0009.13
2022-11-13 15:04:00,,0820.2,5.00,0.00,22.4,21.1,00.0,31.3,24.2,09.0,0002.5,0020.64,0010.36,0009.29
2022-11-13 15:05:00,,0820.2,5.00,0.00,22.4,21.1,00.0,31.3,24.2,09.1,0002.6,0020.56,0010.55,0009.45
2022-11-13 15:06:00,,0820.2,4.98,0.00,22.4,21.1,00.0,31.3,24.2,09.1,0002.0,0021.09,0010.58,0009.51
2022-11-13 15:07:00,,0820.2,5.00,0.00,22.4,21.1,00.0,31.3,24.2,09.2,0000.6,0020.95,0010.55,0009.50
2022-11-13 15:08:00,,0820.2,5.01,0.00,22.4,21.2,00.0,31.2,24.3,09.0,0000.3,0020.87,0010.57,0009.50
2022-11-13 15:09:00,,0820.2,5.01,0.00,22.4,21.2,00.0,31.2,24.3,09.1,0000.1,0022.00,0010.59,0009.51
2022-11-13 15:10:00,,0820.2,5.01,0.00,22.4,21.2,00.0,31.3,24.3,09.2,-001.0,0022.31,0010.53,0009.47
2022-11-13 15:11:00,,0820.2,4.98,0.00,22.4,21.2,00.0,31.3,24.3,09.3,-001.4,0023.66,0010.44,0009.40
2022-11-13 15:12:00,,0820.2,5.01,0.00,22.4,21.2,00.0,31.3,24.3,09.3,-001.4,0023.03,0010.33,0009.31
2022-11-13 15:13:00,,0820.2,5.01,0.00,22.4,21.2,00.0,31.3,24.3,09.3,-001.7,0022.46,0010.28,0009.25
2022-11-13 15:14:00,,0820.2,4.99,0.00,22.4,21.2,00.0,31.2,24.3,09.2,-001.5,0023.60,0010.25,0009.25
2022-11-13 15:15:00,,0820.2,5.00,0.00,22.5,21.2,00.0,31.2,24.3,09.0,-001.9,0023.59,0010.20,0009.18
2022-11-13 15:16:00,,0820.2,5.01,0.00,22.5,21.3,00.0,31.2,24.4,09.1,-002.3,0024.26,0010.13,0009.09
2022-11-13 15:17:00,,0820.2,4.98,0.00,22.5,21.3,00.0,31.3,24.4,09.1,-001.8,0024.64,0010.11,0009.06
2022-11-13 15:18:00,,0820.2,5.01,0.00,22.5,21.3,00.0,31.3,24.4,09.2,-001.8,0024.75,0010.13,0009.03
2022-11-13 15:19:00,,0820.2,5.01,0.00,22.5,21.3,00.0,31.3,24.4,09.3,-001.1,0025.17,0010.08,0008.96
2022-11-13 15:20:00,,0820.2,4.99,0.00,22.5,21.3,00.0,31.3,24.5,09.4,-000.6,0024.24,0009.99,0008.90
2022-11-13 15:21:00,,0820.2,5.01,0.00,22.5,21.3,00.0,31.3,24.4,09.4,-000.8,0023.83,0009.94,0008.85
2022-11-13 15:22:00,,0820.2,4.99,0.00,22.6,21.3,00.0,31.3,24.5,09.2,-000.8,0022.46,0009.94,0008.85
2022-11-13 15:23:00,,0820.2,5.00,0.00,22.6,21.4,00.0,31.3,24.5,09.3,-001.3,0021.99,0009.95,0008.87
2022-11-13 15:24:00,,0820.2,5.01,0.00,22.6,21.4,00.0,31.3,24.5,09.1,-001.1,0022.77,0009.99,0008.88
2022-11-13 15:25:00,,0820.2,5.00,0.00,22.6,21.4,00.0,31.3,24.5,09.1,-000.7,0021.97,0009.88,0008.85
2022-11-13 15:26:00,,0820.2,5.00,0.00,22.6,21.4,00.0,31.3,24.5,09.2,-000.8,0021.38,0009.81,0008.80
2022-11-13 15:27:00,,0820.2,5.01,0.00,22.6,21.4,00.0,31.3,24.5,08.9,-001.0,0020.28,0009.75,0008.76
2022-11-13 15:28:00,,0820.2,4.99,0.00,22.6,21.4,00.0,31.3,24.6,08.7,-001.0,0019.49,0009.69,0008.68
2022-11-13 15:29:00,,0820.2,5.00,0.00,22.6,21.4,00.0,31.3,24.5,09.2,-000.7,0019.19,0009.60,0008.62
2022-11-13 15:30:00,,0820.2,5.00,0.00,22.6,21.4,00.0,31.3,24.6,09.4,-000.6,0019.06,0009.56,0008.61
2022-11-13 15:31:00,,0820.1,5.00,0.00,22.6,21.4,00.0,31.4,24.6,09.4,-000.5,0019.08,0009.57,0008.61
2022-11-13 15:32:00,,0820.1,5.02,0.00,22.7,21.4,00.0,31.4,24.6,08.9,0000.7,0019.31,0009.55,0008.60
2022-11-13 15:33:00,,0820.0,4.99,0.00,22.7,21.4,00.0,31.4,24.6,08.6,0001.2,0019.50,0009.50,0008.54
2022-11-13 15:34:00,,0820.0,5.00,0.00,22.7,21.5,00.0,31.4,24.6,08.9,0002.1,0019.93,0009.46,0008.48
2022-11-13 15:35:00,,0820.0,5.01,0.00,22.7,21.5,00.0,31.4,24.6,09.1,0002.1,0018.79,0009.34,0008.41
2022-11-13 15:36:00,,0820.1,5.01,0.00,22.7,21.5,00.0,31.4,24.6,09.5,0001.7,0017.66,0009.34,0008.39
2022-11-13 15:37:00,,0820.1,4.99,0.00,22.7,21.5,00.0,31.4,24.6,09.5,0002.0,0017.56,0009.37,0008.41
2022-11-13 15:38:00,,0820.0,5.00,0.00,22.7,21.5,00.0,31.4,24.7,09.7,0002.1,0018.08,0009.41,0008.41
2022-11-13 15:39:00,,0820.0,5.01,0.00,22.7,21.6,00.0,31.4,24.7,09.6,0001.5,0018.52,0009.40,0008.37
2022-11-13 15:40:00,,0820.0,4.99,0.00,22.7,21.6,00.0,31.4,24.7,09.4,0001.6,0018.91,0009.35,0008.32
2022-11-13 15:41:00,,0820.0,4.99,0.00,22.8,21.6,00.0,31.5,24.7,09.2,0001.6,0018.46,0009.26,0008.23
2022-11-13 15:42:00,,0820.1,5.02,0.00,22.8,21.6,00.0,31.5,24.7,09.3,0001.2,0017.96,0009.13,0008.11
2022-11-13 15:43:00,,0820.2,4.99,0.00,22.8,21.6,00.0,31.5,24.7,09.5,0001.0,0018.42,0009.09,0008.04
2022-11-13 15:44:00,,0820.1,5.00,0.00,22.8,21.6,00.0,31.5,24.8,09.7,0001.2,0019.30,0009.10,0008.02
2022-11-13 15:45:00,,0820.1,5.01,0.00,22.8,21.6,00.0,31.5,24.8,09.7,0001.3,0019.94,0009.13,0007.98
2022-11-13 15:46:00,,0820.1,5.00,0.00,22.8,21.6,00.0,31.5,24.8,09.9,0001.7,0020.75,0009.20,0007.95
2022-11-13 15:47:00,,0820.0,5.00,0.00,22.8,21.7,00.0,31.5,24.8,09.8,0001.8,0021.04,0009.14,0007.87
2022-11-13 15:48:00,,0820.0,5.00,0.00,22.9,21.7,00.0,31.5,24.8,09.6,0001.9,0021.57,0009.11,0007.78
2022-11-13 15:49:00,,0820.1,5.00,0.00,22.9,21.7,00.0,31.5,24.8,09.2,0002.2,0020.56,0009.00,0007.69
2022-11-13 15:50:00,,0820.1,4.99,0.00,22.9,21.7,00.0,31.6,24.8,09.4,0002.5,0020.15,0008.92,0007.62
2022-11-13 15:51:00,,0820.1,5.01,0.00,22.9,21.7,00.0,31.6,24.8,09.6,0002.5,0019.41,0008.85,0007.56
2022-11-13 15:52:00,,0820.2,5.00,0.00,22.9,21.7,00.0,31.6,24.8,09.8,0002.8,0019.99,0008.81,0007.54
2022-11-13 15:53:00,,0820.1,5.00,0.00,22.9,21.7,00.0,31.6,24.8,09.8,0003.2,0021.34,0008.88,0007.55
2022-11-13 15:54:00,,0820.1,5.00,0.00,22.9,21.7,00.0,31.6,24.9,09.9,0003.1,0021.61,0008.87,0007.54
2022-11-13 15:55:00,,0820.0,5.00,0.00,22.9,21.7,00.0,31.6,24.9,10.0,0003.0,0021.23,0008.88,0007.49
2022-11-13 15:56:00,,0820.0,5.00,0.00,22.9,21.7,00.0,31.6,24.9,09.8,0002.7,0020.16,0008.75,0007.43
2022-11-13 15:57:00,,0820.1,4.99,0.00,22.9,21.7,00.0,31.6,24.9,09.4,0002.5,0019.72,0008.59,0007.37
2022-11-13 15:58:00,,0820.0,5.02,0.00,22.9,21.7,00.0,31.6,24.9,09.5,0002.2,0019.51,0008.53,0007.30
2022-11-13 15:59:00,,0820.0,4.99,0.00,23.0,21.7,00.0,31.7,24.9,09.8,0001.0,0018.90,0008.50,0007.25
